Wind_Speed
34 30 30 30 27 24 23 24 19 15 18 18 17 16 17 19 18 19 20 21 10 10 11 20 23 16 15 12 12 12 12 14 9 13 15 14 19 15 8 11 15 15 17
34 32 31 26 26 25 23 20 20 19 18 17 14 16 18 18 18 19 20 17 13 13 14 19 24 18 18 15 14 14 15 16 19 16 19 18 20 18 17 18 18 17 21
34 30 32 30 28 26 22 22 18 17 18 17 16 16 14 16 15 18 19 19 18 18 19 24 29 23 21 18 18 18 18 18 22 22 18 17 20 16 17 17 15 22 25
35 33 27 32 27 24 21 18 15 13 18 18 14 11 13 15 16 15 15 17 18 19 20 22 23 23 23 22 22 19 19 21 22 23 23 20 18 20 18 18 21 25 26
34 32 25 25 23 23 22 19 13 6 4 4 6 8 8 8 10 10 12 14 16 17 19 19 21 22 23 24 24 24 22 22 21 20 21 24 22 16 14 20 20 22 22
34 32 30 24 20 20 17 12 9 7 5 5 4 3 4 7 9 13 14 14 14 15 17 19 19 20 22 24 24 23 25 26 27 23 22 19 23 18 11 14 17 17 5
32 32 31 25 19 18 15 15 15 11 7 4 3 5 9 12 15 16 15 14 16 19 19 19 22 22 22 22 23 20 20 19 25 26 25 25 25 23 22 19 17 17 20
26 25 21 20 19 18 18 14 10 6 4 3 5 7 7 11 15 18 20 22 21 21 21 19 19 21 23 26 28 25 22 21 21 24 27 27 25 26 26 24 24 21 24
21 20 21 19 22 18 15 12 9 7 3 4 5 7 11 17 16 18 20 22 21 20 17 18 18 17 13 19 19 20 25 26 23 18 20 24 26 25 26 25 23 20 13
25 19 21 23 17 14 12 10 7 4 4 6 7 12 14 18 19 22 22 22 22 22 18 16 14 17 15 15 17 19 22 20 16 14 18 21 23 24 23 24 31 19 16
28 30 26 20 17 16 14 11 8 7 7 11 12 10 13 16 18 16 18 22 24 25 23 19 15 11 15 20 20 22 21 24 26 24 25 29 30 31 30 32 28 34 25
28 28 23 17 12 10 8 7 6 10 11 15 12 8 6 10 14 18 16 13 10 10 15 16 16 21 23 25 28 29 29 28 28 27 25 23 24 26 27 28 31 34 35
19 15 18 11 7 8 10 11 10 13 15 14 15 12 14 17 16 17 18 15 18 17 17 16 19 23 28 33 37 40 40 39 34 26 24 26 30 31 32 32 32 32 36
8 10 6 10 8 9 10 13 16 14 15 20 17 16 20 14 16 15 14 12 12 13 15 19 23 25 28 30 34 36 33 27 26 27 28 29 30 27 28 30 27 26 29
13 14 8 6 6 13 13 12 13 16 15 12 15 14 16 16 10 10 10 15 17 17 19 21 23 25 26 27 28 29 29 28 26 27 27 25 26 27 28 29 28 25 24
20 12 13 15 11 9 12 17 7 9 14 16 16 18 8 16 16 16 15 17 20 23 24 25 24 22 22 23 23 24 26 26 27 28 26 24 23 25 26 27 29 26 22
11 9 4 5 9 12 7 11 12 17 19 18 13 12 18 22 25 29 31 32 32 20 19 20 19 19 19 19 21 21 23 25 24 21 19 18 19 23 24 23 25 24 20
3 1 5 5 9 12 14 14 15 17 14 13 15 15 18 28 33 28 25 25 24 23 18 18 18 19 20 20 21 21 22 22 23 21 16 17 18 19 20 19 19 21 19
3 9 8 10 13 16 16 17 18 17 17 17 19 19 26 32 29 26 24 19 19 20 20 20 20 21 21 23 24 25 24 24 23 24 23 20 18 16 17 19 21 21 20
11 11 10 13 15 13 15 15 16 17 17 17 18 20 29 30 27 24 22 22 21 21 22 23 23 23 24 24 25 26 25 25 24 23 22 19 18 17 16 18 18 18 19
13 17 16 16 16 18 19 19 19 18 17 17 17 18 20 21 18 19 21 22 23 24 25 25 25 25 26 26 26 26 25 26 25 23 23 24 21 21 19 18 22 20 18
20 22 21 19 19 20 17 17 17 15 16 15 16 17 17 17 17 19 21 23 25 26 26 25 25 24 26 28 28 27 27 27 26 24 22 22 22 20 20 19 19 17 19
18 18 17 16 16 15 15 14 15 15 13 12 13 15 17 17 18 20 21 23 24 25 26 25 24 25 26 22 20 21 25 27 27 26 26 25 23 22 21 21 22 21 17
14 14 14 14 14 13 12 13 12 12 12 12 14 15 17 19 19 20 21 22 23 24 25 26 28 28 30 29 27 27 27 27 25 27 26 26 25 24 23 24 24 24 19
12 13 14 12 10 11 10 12 11 11 11 12 13 16 17 18 19 20 22 21 22 25 26 27 29 31 33 35 32 31 29 29 21 19 18 23 28 28 29 27 24 19 21
13 13 12 7 6 9 9 9 10 11 10 11 12 12 15 20 21 22 22 21 23 24 25 26 29 31 34 36 35 32 31 31 29 22 14 7 10 15 16 14 9 13 11
Wind_Direction
192 200 205 215 219 224 227 235 240 235 241 254 270 279 283 294 296 287 284 282 312 16 14 276 282 278 275 278 270 269 263 243 233 274 272 282 289 286 305 245 243 242 254
190 196 202 209 212 217 223 230 235 241 249 253 263 264 280 288 290 288 289 292 282 266 245 265 281 272 262 266 266 265 264 268 259 262 273 273 288 289 298 265 277 263 255
189 192 197 204 206 210 221 232 230 233 248 246 247 259 274 293 285 288 288 290 282 266 271 264 268 275 269 263 254 261 267 269 271 262 273 280 291 285 278 265 238 256 246
186 190 186 201 199 201 218 215 221 241 246 251 245 266 280 285 291 292 290 288 285 283 279 274 276 273 270 275 262 258 266 264 273 274 274 286 298 302 264 247 248 245 242
177 184 193 186 190 217 224 209 176 199 195 218 258 276 290 298 302 300 303 298 294 287 285 285 288 287 281 275 272 272 263 261 257 268 275 283 290 286 254 270 263 268 267
178 182 181 163 157 153 154 161 162 161 177 163 120 40 324 312 306 312 314 310 312 311 309 305 300 292 282 284 281 275 271 265 259 257 265 267 278 276 272 267 271 260 268
163 163 163 157 156 150 149 161 158 162 172 195 261 296 304 307 311 311 306 306 310 314 314 309 308 312 300 290 287 284 279 274 264 261 262 265 274 278 274 275 271 251 246
146 150 154 155 148 152 152 149 157 157 172 235 283 283 278 288 300 300 302 304 305 309 311 308 307 314 319 313 298 289 283 287 275 262 260 270 278 288 280 276 273 274 276
154 157 152 150 154 154 154 160 169 180 222 272 282 293 303 303 309 302 300 296 296 302 312 315 318 326 338 336 342 325 296 286 290 278 265 270 282 291 289 277 266 250 255
160 154 160 159 161 159 166 173 183 215 256 262 269 301 312 310 312 305 298 286 285 288 293 296 303 320 321 328 340 340 333 321 313 294 275 273 280 285 286 280 261 251 236
157 149 147 154 165 177 182 188 209 237 263 288 295 317 322 328 329 349 336 314 288 283 282 290 307 310 320 323 324 322 317 314 307 299 290 288 285 285 286 282 280 259 245
147 144 144 154 168 177 190 210 258 277 283 275 295 302 326 320 316 328 334 322 329 325 294 289 296 303 307 311 311 311 309 307 302 298 286 279 275 275 277 278 278 275 268
116 133 136 148 149 196 224 239 254 269 269 279 292 279 292 292 283 303 298 292 306 315 316 302 301 302 305 307 306 306 303 295 287 279 269 269 271 273 275 272 271 274 275
101 98 165 191 209 243 256 256 264 268 277 280 283 277 281 276 287 282 274 294 306 300 301 295 297 302 307 308 310 306 297 289 280 270 266 267 270 268 267 271 266 267 263
238 206 232 240 243 289 286 283 284 288 289 338 339 327 317 310 350 355 318 312 315 318 308 308 309 304 299 294 293 293 290 289 281 275 272 270 265 264 263 264 263 262 267
199 224 227 296 292 297 297 299 348 22 350 345 332 327 38 66 44 25 6 348 336 330 320 309 297 286 276 277 280 284 289 282 279 278 275 273 272 269 264 258 255 251 257
215 248 252 285 303 316 36 10 351 337 335 335 343 61 59 18 2 351 342 333 328 335 318 310 296 292 291 297 295 294 295 297 296 294 300 302 298 287 274 269 262 257 251
119 295 330 1 50 15 2 343 331 334 351 61 42 22 360 353 351 353 353 342 342 337 326 312 309 310 307 306 305 302 300 303 309 307 305 312 315 307 314 302 293 278 263
93 83 54 20 359 355 3 32 40 34 39 26 12 4 351 344 348 354 357 349 330 322 320 314 311 307 306 306 300 296 295 299 302 304 301 302 303 308 308 314 315 297 309
92 76 51 48 58 55 39 41 39 30 30 25 14 0 350 349 352 346 346 341 332 325 320 315 310 306 303 299 297 294 291 288 283 282 286 292 292 297 302 303 307 313 310
72 74 74 66 60 45 42 39 32 28 20 9 356 353 351 348 340 338 336 334 331 326 322 316 309 304 301 298 294 291 287 285 279 279 280 279 283 284 285 285 290 296 303
56 52 49 46 31 33 33 24 26 21 8 1 357 358 2 357 346 342 342 340 339 337 332 329 324 316 311 306 297 291 286 281 277 274 273 275 276 273 272 270 272 277 288
54 52 47 33 34 36 29 29 25 22 8 15 9 4 6 359 359 358 358 360 360 358 360 358 354 349 351 346 331 315 304 295 286 274 269 270 265 268 264 266 267 261 262
62 59 51 45 46 45 38 44 42 42 30 29 31 22 16 17 19 18 15 13 13 13 11 11 10 10 8 7 1 351 342 329 304 281 268 265 259 262 264 262 260 252 250
65 64 61 59 55 61 57 58 55 52 41 32 27 18 19 24 22 19 14 12 14 17 20 21 18 15 14 13 8 4 2 359 349 319 273 258 260 265 266 263 260 251 256
74 71 72 67 64 62 58 63 57 51 42 34 26 19 15 26 23 19 13 13 15 13 11 12 13 13 15 18 17 16 16 17 20 25 22 331 285 270 262 267 283 244 270
Height
779 785 790 795 799 803 806 809 810 812 812 813 814 814 814 813 812 810 810 807 812 809 799 800 807 808 807 806 803 801 799 798 799 793 793 794 793 792 790 788 789 789 790
774 779 784 789 794 797 801 803 805 807 808 809 810 810 810 809 808 806 804 804 806 804 800 798 801 803 802 801 801 799 797 796 794 791 789 788 788 788 787 786 786 785 784
769 774 779 784 788 792 795 798 800 801 802 803 804 805 805 804 803 803 801 800 800 799 797 796 797 796 792 793 794 794 793 792 790 788 784 783 781 782 782 781 780 775 780
764 769 774 778 782 786 789 792 795 797 798 801 802 803 803 802 800 797 796 794 794 795 795 793 791 789 787 788 787 786 786 786 786 784 781 780 778 777 776 776 777 776 776
758 764 769 773 778 780 784 789 792 793 795 797 798 799 799 798 797 796 794 791 789 787 787 786 785 784 782 782 782 780 779 780 781 781 779 777 775 775 773 772 772 772 772
754 759 765 770 775 778 781 784 788 790 792 794 796 797 797 797 794 792 791 789 788 785 783 782 780 778 776 776 776 775 774 774 774 774 774 772 770 771 770 771 769 768 768
751 756 761 766 773 777 780 783 785 786 788 789 790 790 791 791 791 789 786 784 784 783 781 777 776 775 774 772 769 770 768 768 766 766 767 766 766 765 765 765 764 763 762
757 763 768 771 772 775 781 784 787 789 789 788 789 787 785 787 788 786 785 783 779 779 778 775 772 770 769 767 765 763 762 762 762 762 760 759 760 761 760 759 759 758 757
756 761 768 775 780 782 783 785 788 788 790 789 789 789 788 785 782 782 781 781 778 774 773 773 771 768 765 763 760 758 757 756 756 756 757 756 755 753 754 755 754 754 752
751 761 769 778 786 786 788 789 788 788 787 786 782 782 783 780 777 776 775 774 773 772 770 768 767 767 765 761 759 756 757 755 753 751 751 750 749 747 746 747 746 746 746
751 754 764 774 780 783 784 784 785 786 785 785 784 776 775 776 774 771 771 769 768 767 766 765 764 761 760 760 756 755 752 751 750 747 744 744 742 741 739 737 738 739 738
756 751 762 772 778 782 786 786 786 786 781 782 775 772 772 774 772 766 767 767 765 763 762 762 760 759 756 755 753 750 748 746 742 742 738 736 735 734 732 731 729 729 728
761 766 761 773 777 778 779 779 780 781 779 778 774 768 767 768 767 763 763 763 761 759 758 757 756 754 752 749 747 743 740 737 734 732 730 728 725 725 724 723 721 721 719
779 767 774 776 775 777 774 777 778 775 775 774 770 764 763 761 761 759 758 759 758 755 753 751 749 747 745 744 740 735 731 728 726 723 720 719 717 716 715 715 713 712 711
788 777 777 772 774 779 775 773 772 774 772 769 769 765 760 756 757 755 755 755 753 750 747 744 742 741 738 735 732 728 725 722 719 716 714 711 710 708 706 706 706 704 702
766 774 771 773 773 771 772 773 769 769 770 767 767 761 755 755 754 753 753 751 749 745 742 739 736 733 730 727 724 721 718 715 712 709 706 705 702 701 698 696 696 695 694
766 771 769 771 773 773 771 769 767 766 767 766 761 753 751 752 750 750 748 746 743 740 737 735 731 728 725 721 719 717 713 710 706 704 701 699 697 694 691 689 688 687 685
768 770 770 773 772 770 768 767 765 764 767 766 758 753 750 751 752 749 745 741 738 735 734 732 727 724 721 718 715 711 708 705 702 699 696 693 692 690 687 684 681 680 677
768 770 770 770 770 768 767 768 769 769 765 760 755 754 753 752 749 747 745 743 740 736 732 728 725 721 717 714 711 708 705 701 699 695 692 689 687 686 684 682 678 675 674
771 770 769 770 773 775 774 771 768 763 760 759 758 758 753 750 746 746 744 742 739 734 730 725 721 717 713 710 706 702 698 695 691 689 686 683 682 681 680 679 676 674 671
772 774 775 774 772 768 764 762 762 762 761 760 760 759 757 754 751 749 746 742 737 732 727 722 717 712 708 703 700 696 692 687 684 681 678 676 675 674 674 674 674 671 668
761 761 761 762 762 762 763 764 763 763 762 763 762 759 757 755 753 749 745 741 736 731 726 719 713 709 704 698 694 689 685 680 676 673 671 669 668 667 666 666 665 663 662
763 763 765 766 766 766 766 765 765 765 767 765 762 760 758 756 752 749 745 741 736 730 724 719 712 706 700 694 689 684 679 672 667 664 662 661 659 659 658 658 657 656 654
767 768 768 769 769 769 770 768 769 769 769 766 763 762 759 756 753 750 747 742 737 731 726 720 713 707 700 693 687 680 673 665 657 653 652 652 650 650 650 650 648 646 645
770 770 770 772 773 772 772 771 771 769 769 766 764 762 760 757 754 751 747 743 739 733 727 722 716 709 702 694 687 679 671 661 652 644 641 642 643 643 642 641 638 637 638
772 772 774 776 775 774 774 773 772 769 768 767 765 763 761 758 756 752 749 744 740 735 729 723 717 711 704 696 690 682 672 663 653 646 641 639 638 636 635 633 631 630 629